Regional Weather Roundup
Issued by NWS Mt. Holly, NJ

Home | Current Version | Previous Version | Text Only | Print | Product List | Glossary On
Versions: 1 2 3 4 5 6 7 8 9 10 11 12 13 14 15 16 17 18 19 20 21 22 23 24 25 26 27 28 29 30 31 32 33 34 35 36 37 38 39 40 41 42 43 44 45 46 47 48 49 50
000
ASUS41 KPHI 312112
RWRPHI

REGIONAL WEATHER ROUNDUP
NATIONAL WEATHER SERVICE MOUNT HOLLY NJ
500 PM EDT WED AUG 31 2016

NOTE:  "FAIR" INDICATES FEW OR NO CLOUDS BELOW 12,000 FEET WITH NO
SIGNIFICANT WEATHER AND/OR OBSTRUCTIONS TO VISIBILITY.

 * = STATION DOES NOT REPORT PRECIPITATION (E.G. RAIN, SNOW, ETC.)
        OR FOG.

NJZ015>026-312200-
SOUTHERN NEW JERSEY

CITY           SKY/WX    TMP DP  RH WIND       PRES   REMARKS
POMONA         SUNNY     84  65  52 S14       29.90F
WILDWOOD*        N/A     84  66  54 S12       29.92F
MILLVILLE      SUNNY     86  65  49 VRB5      29.90F
WRIGHTSTOWN    MOSUNNY   88  62  41 S5        29.85F
MOUNT HOLLY    MOSUNNY   89  60  37 VRB3      29.87F
TRENTON        MOSUNNY   89  60  37 N6        29.87F

$$
NJZ001>014-312200-
NORTHERN NEW JERSEY

CITY           SKY/WX    TMP DP  RH WIND       PRES   REMARKS
SUSSEX         CLOUDY    81  67  62 SW3       29.90F
ANDOVER*         N/A     79  68  69 CALM      29.91F
MORRISTOWN     PTSUNNY   86  64  48 SW6       29.89F
NEWARK         CLOUDY    85  67  54 E9        29.88F
TETERBORO      CLOUDY    87  59  38 W9        29.86F
CALDWELL       CLOUDY    87  63  44 VRB3      29.88F
SOMERVILLE     CLOUDY    87  65  47 CALM      29.86F
ALLAIRE*       MOSUNNY   83  68  60 SE10      29.90F
TOMS RIVER*    SUNNY     85  68  56 S12G21    29.90S

$$
PAZ043-044-047-054-055-060>062-066>071-312200-
EASTERN PENNSYLVANIA

CITY           SKY/WX    TMP DP  RH WIND       PRES   REMARKS
PHILADELPHIA   PTSUNNY   89  62  40 W6        29.88F
NORTH PHILA    MOSUNNY   89  61  38 VRB6      29.88F
BLUE BELL*     CLOUDY    84  63  48 SW5       29.87F
DOYLESTOWN     PTSUNNY   88  63  43 NW5       29.88F
QUAKERTOWN*    PTSUNNY   88  63  42 W3        29.90F
POTTSTOWN      CLOUDY    85  63  47 N3        29.90F
LANCASTER      HVY RAIN  74  70  87 SW15      29.91R FOG
COATESVILLE    MOSUNNY   82  68  61 CALM      29.92S
READING        CLOUDY    85  65  51 N5        29.87F
ALLENTOWN      PTSUNNY   86  66  51 NW6       29.89F
MOUNT POCONO   CLOUDY    76  61  59 W7        29.97F
WILKES BARRE   CLOUDY    79  66  64 NW5       29.92F

$$
DEZALL-MDZ008-012-015-019-020-312200-
DELAWARE AND EASTERN MARYLAND

CITY           SKY/WX    TMP DP  RH WIND       PRES   REMARKS
WILMINGTON     SUNNY     88  68  51 S10       29.89F HX  91
DOVER          SUNNY     84  73  68 E13       29.88F HX  90
GEORGETOWN     SUNNY     86  68  54 SE8       29.90F
ABERDEEN       MOSUNNY   86  68  54 S6        29.87F
PATUXENT       MOSUNNY   86  66  51 SE9       29.89F
OCEAN CITY     SUNNY     82  69  64 VRB7      29.91F
WALLOPS ISLAND MOSUNNY   84  69  60 SE8       29.92F
CAMBRIDGE      SUNNY     86  64  48 S6        29.89S
SALISBURY      SUNNY     85  68  56 SE9       29.89F

$$
PAZ001-021-NYZ056-072-MDZ011-DCZ001-312200-
OTHER NEARBY LOCATIONS

CITY           SKY/WX    TMP DP  RH WIND       PRES   REMARKS
HARRISBURG     CLOUDY    81  74  79 CALM      29.86F
STATE COLLEGE  CLOUDY    73  64  73 NW6       29.96F
WILLIAMSPORT   CLOUDY    76  64  66 SW3       29.90F
BINGHAMTON     CLOUDY    69  61  75 SW7       29.94F
NEW YORK CITY  CLOUDY    86  62  44 S3        29.91F
BALTIMORE      PTSUNNY   87  71  58 SE8       29.87F HX  93
WASHINGTON DC  PTSUNNY   89  70  53 S13       29.87F HX  94

$$



USA.gov is the U.S. government's official web portal to all federal, state and local government web resources and services.